Clearfield, PA

11:11 AM EDT on October 19, 2017 (GMT -0400)
Clearfield-Lawrence

Weather History for KFIG - March, 2013

Change the Weather History Date:

Saturday, March 9, 2013

  Actual Average (KDUJ) Record (KDUJ)
Temperature  
Mean Temperature 38 °F -  
Max Temperature 54 °F 41 °F 72 °F (2016)
Min Temperature 21 °F 22 °F 1 °F (1984)
Degree Days  
Heating Degree Days 28    
Moisture  
Dew Point 21 °F    
Average Humidity 59    
Maximum Humidity 92    
Minimum Humidity 24    
Precipitation  
Precipitation 0.00 in - - ()
Sea Level Pressure  
Sea Level Pressure 30.33 in    
Wind  
Wind Speed 2 mph (North)    
Max Wind Speed 6 mph    
Max Gust Speed -    
Visibility 10 miles    
Events      
Averages and records for this station are not official NWS values.
T = Trace of Precipitation, MM = Missing Value Source: NWS Daily Summary

Daily Weather History Graph

Daily Weather History Graph

Search for Another Location

Airport or City:

Trip Planner

Search our weather history database for the weather conditions in past years. The results will help you decide how hot, cold, wet, or windy it might be!

Date:

Astronomy

Mar. 09, 2013 Rise Set
Actual Time 6:34 AM EST 6:13 PM EST
Civil Twilight 6:07 AM EST 6:41 PM EST
Nautical Twilight 5:35 AM EST 7:13 PM EST
Astronomical Twilight 5:03 AM EST 7:45 PM EST
Moon 4:58 AM EST (3/9) 4:13 PM EST (3/9)
Length of Visible Light 12h 34m
Length of Day
11h 39m
Waning Crescent, 5% of the Moon is Illuminated
Mar 9
Waning Crescent
Mar 11
New
Mar 19
First Quarter
Mar 27
Full
Apr 3
Last Quarter

Hourly Weather History & Observations

Time (EST) Temp. Windchill Dew Point Humidity Pressure Visibility Wind Dir Wind Speed Gust Speed Precip Events Conditions
12:54 AM 28.0 °F 24.2 °F 19.9 °F 72% 30.38 in 10.0 mi West 3.5 mph - N/A   Clear
1:54 AM 28.0 °F - 21.0 °F 75% 30.39 in 10.0 mi Calm Calm - N/A   Clear
2:54 AM 26.1 °F - 21.9 °F 84% 30.37 in 10.0 mi Calm Calm - N/A   Clear
3:54 AM 25.0 °F - 21.0 °F 85% 30.36 in 10.0 mi Calm Calm - N/A   Clear
4:54 AM 23.0 °F 18.4 °F 19.9 °F 88% 30.37 in 10.0 mi SW 3.5 mph - N/A   Clear
5:54 AM 23.0 °F - 19.9 °F 88% 30.38 in 10.0 mi Calm Calm - N/A   Clear
6:54 AM 21.9 °F - 19.0 °F 89% 30.38 in 10.0 mi Calm Calm - N/A   Clear
7:54 AM 25.0 °F 20.7 °F 23.0 °F 92% 30.41 in 10.0 mi SSW 3.5 mph - N/A   Clear
8:54 AM 30.0 °F - 25.0 °F 82% 30.42 in 10.0 mi Calm Calm - N/A   Clear
9:54 AM 36.0 °F - 25.0 °F 64% 30.40 in 10.0 mi Calm Calm - N/A   Clear
10:54 AM 41.0 °F 37.1 °F 25.0 °F 53% 30.36 in 10.0 mi ENE 5.8 mph - N/A   Clear
11:54 AM 44.1 °F 42.5 °F 25.0 °F 47% 30.35 in 10.0 mi NW 3.5 mph - N/A   Clear
12:54 PM 46.9 °F - 21.9 °F 37% 30.32 in 10.0 mi Calm Calm - N/A   Clear
1:54 PM 51.1 °F - 21.0 °F 31% 30.31 in 10.0 mi Calm Calm - N/A   Clear
2:54 PM 52.0 °F - 18.0 °F 26% 30.30 in 10.0 mi Calm Calm - N/A   Clear
3:54 PM 54.0 °F - 19.0 °F 25% 30.27 in 10.0 mi Calm Calm - N/A   Clear
4:54 PM 53.1 °F - 17.1 °F 24% 30.27 in 10.0 mi Calm Calm - N/A   Clear
5:54 PM 51.1 °F - 17.1 °F 26% 30.27 in 10.0 mi NNE 3.5 mph - N/A   Clear
6:54 PM 45.0 °F - 19.0 °F 36% 30.28 in 10.0 mi Calm Calm - N/A   Clear
7:54 PM 39.9 °F 36.7 °F 21.9 °F 49% 30.30 in 10.0 mi North 4.6 mph - N/A   Clear
8:54 PM 37.9 °F 35.5 °F 21.9 °F 53% 30.28 in 10.0 mi North 3.5 mph - N/A   Clear
9:54 PM 34.0 °F 31.0 °F 23.0 °F 64% 30.28 in 10.0 mi North 3.5 mph - N/A   Clear
10:54 PM 33.1 °F 27.7 °F 21.9 °F 64% 30.28 in 10.0 mi NNE 5.8 mph - N/A   Clear
11:54 PM 32.0 °F 26.4 °F 21.9 °F 66% 30.27 in 10.0 mi NE 5.8 mph - N/A   Clear